Location: St. Louis
(38.6270°N, 90.1994°W)
Time: 22:46:11
(UTC-06:00)

Vanguard 1 - Pass Details

Date: 03 December 2021
Orbit: 652 x 3830 km, 34.2° (Epoch: 21 January)

Event Time Altitude Azimuth Distance (km) Brightness Sun altitude
Rises 00:44:58 0° 247° (WSW) 7,393 - -69.8°
Reaches altitude 10° 00:49:34 10° 245° (WSW) 6,608 - -69.2°
Maximum altitude 01:12:48 73° 166° (SSE) 3,833 - -65.9°
Exits shadow 01:22:07 44° 97° (E) 4,203 13.1 -64.4°
Drops below altitude 10° 01:32:07 10° 87° (E) 5,665 14.2 -62.8°
Sets 01:35:42 0° 86° (E) 6,348 14.6 -62.2°
